Location: Newark
(50.8086°N, 4.3114°E)
Time: 02:12:37
(UTC+00:00)

XW-2D - Pass Details

Date: 24 January 2020
Orbit: 507 x 528 km, 97.5° (Epoch: 26 February)

Event Time Altitude Azimuth Distance (km) Brightness Sun altitude
Rises 06:01:02 0° 11° (N) 2,638 ? -13.9°
Reaches altitude 10° 06:03:09 10° 9° (N) 1,744 ? -13.6°
Maximum altitude 06:06:53 71° 287° (WNW) 544 ? -13.0°
Drops below altitude 10° 06:10:34 10° 202° (SSW) 1,722 ? -12.4°
Sets 06:12:39 0° 201° (SSW) 2,602 ? -12.1°
